ONEWEB-0698, 61604

Orbit data source: Space-Track

ONEWEB-0698, 61604 is a payload satellite owned by Eut. One Web (UK) in LEO that was launched on Sun, 20 Oct 2024 UTC via an FALCON 9 launch vehicle from the Air Force Western Test Range (AFWTR). Payload-class satellites include a variety of spacecraft equipped with specific instruments for various scientific and technological missions. These include communications satellites like Starlink; space stations such as the ISS; scientific satellites like the Hubble; Earth observation satellites from companies like Planet Labs, Umbra, and HawkEye 360; GPS; miniature CubeSats for education and research; and military/defense satellites.

Loading next visibility...
Identifier
61604, 2024-188L
Orbit
LEO
Country
Flag of UKUK
Related business
Manufacturer
One Web
Mission
Operational Commercial Communications
Bus & Motor
ARROW, Unknown motor
Mass
148 kg wet, ~140 kg dry
Launch date (UTC)
2024-10-20 (11 months ago)
Launch vehicle
FALCON 9
Launch site
Air Force Western Test Range (AFWTR)
Object type
Payload
Rocket body
Debris
Shape & HBR
Trap Box + 2 Pan, 2.5 m
Radar Cross Section
2.032 m², Large (>1 m²)

Expand to show TLE details & history
Last TLE update: 6 hours ago

TLE from 6 hours ago
0 ONEWEB-0698
1 61604U 24188L   25261.28093927 -.00000466  00000-0 -13504-2 0  9999
2 61604  87.8771  75.2602 0000788 122.9585 237.1619 13.11417568 48833
Epoch: 2025-09-18T06:44Z
TLE epoch observation values (Epoch: 2025-09-18T06:44:33.152Z)
Latitude
-0.00002°
Longitude
-23.32273°
Altitude
1,220.894 km
Speed
7.244 km/s
True Right ascension
05h 01m 02s
True Declination
0° 00' 00"
Sunlit
Object was in daylight at epoch
Visualization orbit readout
Latitude
Unknown
Longitude
Unknown
Altitude
Unknown
Speed
Unknown
Apparent Right ascension
Unknown
Apparent Declination
Unknown
Sunlit
N/A
Visualization observer readout
Local Sidereal Time
05:58:49
Azimuth
Unknown
Elevation
Unknown
Doppler factor
Unknown
Orbital elements
Apogee altitude
1,215.397 km
Perigee altitude
1,214.2 km
Semi-major axis
7,592.936 km
Eccentricity
0.00008
Inclination
87.8771°
RAAN
75.2602°
Arg. of periapsis
122.9585°
True anomaly
237.15431°
Mean anomaly
237.1619°
Eccentric anomaly
237.15811°
Mean motion
3.28041 °/min
Orbital period
109.74 mins
BSTAR
-0.0013504
Loading maneuver chart data...
Computing Atmospheric mass density...
Loading historical data...
Loading historical data...
Loading historical data...
Loading historical data...
Loading historical data...
Loading historical data...
Loading historical data...

Documentation

Showing up to 5 results
|